WA9AFM-10 Weather Reports


time (UTC)temp
C
wind
direction
speed
KPH
gust
KPH
rain 1hr
cm
rain 24hr
cm
rain mn
cm
humidity
%
barometer
mb
20260510081149 15 305 1.6 0.0 0.00 0.00 0.00 97 1006.9
20260510074149 15 308 0.0 0.0 0.00 0.00 0.00 97 1006.6
20260510071149 15 303 8.0 0.0 0.00 0.00 0.00 97 1006.9
20260510064147 15 205 6.4 0.0 0.00 0.00 0.00 97 1008.0
20260510061149 15 166 0.0 0.0 0.00 0.00 0.00 97 1010.0
20260510054148 16 200 4.8 0.0 0.00 0.00 0.00 96 1008.6
20260510051148 16 258 4.8 0.0 0.00 0.00 0.00 95 1005.9
20260510044148 17 232 0.0 0.0 0.00 0.00 0.00 91 1009.0
20260510041148 21 92 0.0 0.0 0.00 0.00 0.00 63 1008.6
20260510034149 23 181 0.0 0.0 0.00 0.00 0.00 58 1004.0
20260510031149 23 286 9.7 0.0 0.00 0.00 0.00 56 1003.0
20260510024147 23 339 4.8 0.0 0.00 0.00 0.00 54 1004.6
20260510021148 24 317 0.0 0.0 0.00 0.00 0.00 51 1003.6
20260510014149 25 300 0.0 0.0 0.00 0.00 0.00 51 1002.7
20260510011149 26 285 0.0 0.0 0.00 0.00 0.00 48 1002.5
20260510004149 26 329 0.0 0.0 0.00 0.00 0.00 45 1002.4
20260510001149 27 343 3.2 0.0 0.00 0.00 0.00 42 1002.4
20260509234148 28 357 1.6 0.0 0.00 0.00 0.00 42 1002.5
20260509224149 30 24 0.0 0.0 0.00 0.00 0.00 40 1003.2
20260509214147 31 353 1.6 0.0 0.00 0.00 0.00 38 1003.3
20260509211148 30 327 6.4 0.0 0.00 0.00 0.00 37 1003.8
20260509204148 30 312 1.6 0.0 0.00 0.00 0.00 38 1004.0
20260509201149 30 321 0.0 0.0 0.00 0.00 0.00 39 1004.4
20260509194149 30 244 0.0 0.0 0.00 0.00 0.00 37 1004.7
20260509191149 30 238 4.8 0.0 0.00 0.00 0.00 37 1005.1
20260509184148 29 51 0.0 0.0 0.00 0.00 0.00 41 1005.4
20260509181148 28 336 0.0 0.0 0.00 0.00 0.00 41 1005.8
20260509174149 28 59 0.0 0.0 0.00 0.00 0.00 46 1006.2
20260509164148 26 312 0.0 0.0 0.00 0.00 0.00 53 1006.7
20260509161148 25 327 3.2 0.0 0.00 0.00 0.00 65 1006.8
20260509154222 23 258 1.6 0.0 0.00 0.00 0.00 67 1006.5
20260509154149 23 258 1.6 0.0 0.00 0.00 0.00 67 1006.5
20260509131424 16 315 0.0 0.0 0.00 0.00 0.00 99 1006.2
20260509131152 16 315 0.0 0.0 0.00 0.00 0.00 99 1006.2
20260509121302 12 314 0.0 0.0 0.00 0.00 0.00 98 1005.7
20260509121148 12 314 0.0 0.0 0.00 0.00 0.00 98 1005.7
20260509114150 12 314 0.0 0.0 0.00 0.00 0.00 98 1005.3
20260509111242 12 314 0.0 0.0 0.00 0.00 0.00 98 1005.0
20260509111149 12 314 0.0 0.0 0.00 0.00 0.00 98 1005.0
20260509104223 12 314 0.0 0.0 0.00 0.00 0.00 98 1004.9
20260509104148 12 314 0.0 0.0 0.00 0.00 0.00 98 1004.9
20260509101230 13 314 0.0 0.0 0.00 0.00 0.00 98 1005.3
20260509101148 13 314 0.0 0.0 0.00 0.00 0.00 98 1005.3
20260509091149 13 314 0.0 0.0 0.00 0.00 0.00 98 1005.4
20260509084148 13 314 0.0 0.0 0.00 0.00 0.00 98 1005.2